Japanese version Home page |
Updated on July 21, 2011 |
Profile
|
Orbital ElementsEpoch 2010 Nov. 20.0 TT = JDT 2455520.5 T 2010 Nov. 13.69960 TT MPC q 1.0001207 (2000.0) P Q n 0.18447342 Peri. 343.30056 -0.99415286 -0.10235523 a 3.0561889 Node 190.99715 +0.10753063 -0.96750847 e 0.6727556 Incl. 10.38969 -0.00986207 -0.23119423 P 5.34 From 146 observations 2000 Apr. 7-2011 June 10, mean residual 0".71.
|
Magnitudes Graphm1 = 17.0 + 5 log d + 10.0 log r
|
The orbital elements are published on M.P.E.C. 2011-L41.
|